• In Denmark
  • List of Countries
  • For 7 days
  • Water Temperature
  • Satellite Maps
  • Weather Map
  • Weather Widgets
  • user-avatar
    Login

    Hourly Weather Jerusalem

    Today, 23 January, Tuesday

    Time Temperature Precipitation Wind Pressure Humidity
    00:00 +9°C° 0.1 mm 6 mps 690 mmHg 54%
    01:00 +8°C° 0.1 mm 6 mps 690 mmHg 57%
    02:00 +8°C° 0.1 mm 6 mps 690 mmHg 60%
    03:00 +8°C° 0.3 mm 7 mps 690 mmHg 64%
    04:00 +8°C° 0.3 mm 7 mps 690 mmHg 68%
    05:00 +7°C° 0.3 mm 8 mps 690 mmHg 71%
    06:00 +7°C° 0.3 mm 8 mps 690 mmHg 72%
    07:00 +7°C° 0.3 mm 8 mps 691 mmHg 72%
    08:00 +7°C° 0.3 mm 8 mps 691 mmHg 73%
    09:00 +9°C° 0.1 mm 8 mps 692 mmHg 69%
    10:00 +10°C° 0.1 mm 9 mps 692 mmHg 65%
    11:00 +10°C° 0.1 mm 9 mps 693 mmHg 61%
    12:00 +10°C° 0.1 mm 9 mps 692 mmHg 62%
    13:00 +10°C° 0.1 mm 8 mps 692 mmHg 64%
    14:00 +10°C° 0.1 mm 8 mps 692 mmHg 65%
    15:00 +9°C° 0.1 mm 7 mps 692 mmHg 67%
    16:00 +9°C° 0.1 mm 6 mps 693 mmHg 70%
    17:00 +9°C° 0.1 mm 5 mps 693 mmHg 72%
    18:00 +8°C° 0.1 mm 4 mps 693 mmHg 74%
    19:00 +8°C° 0.1 mm 4 mps 693 mmHg 76%
    20:00 +9°C° 0.1 mm 3 mps 693 mmHg 78%
    21:00 +8°C° 0.1 mm 3 mps 693 mmHg 78%
    22:00 +8°C° 0.1 mm 3 mps 694 mmHg 79%
    23:00 +8°C° 0.1 mm 2 mps 694 mmHg 79%

    Tomorrow, 24 January, Wednesday

    Time Temperature Precipitation Wind Pressure Humidity
    00:00 +8°C° 0.1 mm 2 mps 694 mmHg 79%
    01:00 +8°C° 0.1 mm 2 mps 694 mmHg 79%
    02:00 +8°C° 0.1 mm 2 mps 694 mmHg 80%
    03:00 +8°C° 0.1 mm 2 mps 694 mmHg 80%
    04:00 +8°C° 0.1 mm 2 mps 693 mmHg 79%
    05:00 +7°C° 0.1 mm 2 mps 693 mmHg 79%
    06:00 +8°C° 0.1 mm 2 mps 694 mmHg 78%
    07:00 +8°C° 0.1 mm 2 mps 694 mmHg 77%
    08:00 +8°C° 0.1 mm 2 mps 694 mmHg 75%
    09:00 +9°C° 0.1 mm 2 mps 694 mmHg 71%
    10:00 +10°C° 0.1 mm 3 mps 695 mmHg 67%
    11:00 +10°C° 0.1 mm 3 mps 695 mmHg 64%
    12:00 +11°C° 0.1 mm 3 mps 694 mmHg 63%
    13:00 +12°C° 0.1 mm 2 mps 694 mmHg 61%
    14:00 +12°C° 0.1 mm 2 mps 693 mmHg 60%
    15:00 +12°C° 0.1 mm 2 mps 693 mmHg 63%
    16:00 +10°C° 0.1 mm 2 mps 693 mmHg 66%
    17:00 +10°C° 0.1 mm 2 mps 693 mmHg 69%
    18:00 +10°C° 0 mm 1 mps 693 mmHg 73%
    19:00 +10°C° 0 mm 1 mps 693 mmHg 77%
    20:00 +9°C° 0 mm 1 mps 693 mmHg 80%
    21:00 +9°C° 0 mm 1 mps 693 mmHg 81%
    22:00 +8°C° 0 mm 1 mps 693 mmHg 81%
    23:00 +8°C° 0 mm 1 mps 693 mmHg 82%

    Day after tomorrow, 25 January, Thursday

    Time Temperature Precipitation Wind Pressure Humidity
    00:00 +8°C° 0 mm 1 mps 693 mmHg 81%
    01:00 +8°C° 0 mm 1 mps 693 mmHg 81%
    02:00 +7°C° 0 mm 1 mps 693 mmHg 80%
    03:00 +7°C° 0.1 mm 1 mps 692 mmHg 80%
    04:00 +7°C° 0.1 mm 1 mps 692 mmHg 80%
    05:00 +7°C° 0.1 mm 1 mps 692 mmHg 80%
    06:00 +7°C° 0.2 mm 2 mps 692 mmHg 79%
    07:00 +7°C° 0.2 mm 2 mps 693 mmHg 78%
    08:00 +7°C° 0.2 mm 2 mps 693 mmHg 77%
    09:00 +8°C° 0.3 mm 3 mps 693 mmHg 75%
    10:00 +8°C° 0.3 mm 3 mps 693 mmHg 74%
    11:00 +8°C° 0.3 mm 4 mps 693 mmHg 72%
    12:00 +8°C° 0.3 mm 4 mps 692 mmHg 71%
    13:00 +8°C° 0.3 mm 5 mps 692 mmHg 69%
    14:00 +8°C° 0.3 mm 5 mps 692 mmHg 68%
    15:00 +8°C° 0.2 mm 5 mps 691 mmHg 69%
    16:00 +8°C° 0.2 mm 4 mps 691 mmHg 69%
    17:00 +8°C° 0.2 mm 4 mps 691 mmHg 70%
    18:00 +7°C° 0.1 mm 4 mps 691 mmHg 70%
    19:00 +7°C° 0.1 mm 4 mps 692 mmHg 70%
    20:00 +6°C° 0.1 mm 4 mps 692 mmHg 71%
    21:00 +6°C° 0.1 mm 4 mps 692 mmHg 73%
    22:00 +6°C° 0.1 mm 4 mps 692 mmHg 75%
    23:00 +6°C° 0.1 mm 4 mps 691 mmHg 77%

    26 January, Friday

    Time Temperature Precipitation Wind Pressure Humidity
    00:00 +6°C° 0.3 mm 4 mps 691 mmHg 80%
    01:00 +5°C° 0.3 mm 4 mps 691 mmHg 82%
    02:00 +5°C° 0.3 mm 4 mps 691 mmHg 84%
    03:00 +5°C° 0.8 mm 5 mps 691 mmHg 85%
    04:00 +4°C° 0.8 mm 6 mps 691 mmHg 85%
    05:00 +4°C° 0.8 mm 8 mps 691 mmHg 85%
    06:00 +4°C° 0.5 mm 8 mps 691 mmHg 82%
    07:00 +3°C° 0.5 mm 9 mps 691 mmHg 78%
    08:00 +3°C° 0.5 mm 9 mps 691 mmHg 75%
    09:00 +3°C° 0.2 mm 10 mps 692 mmHg 70%
    10:00 +5°C° 0.2 mm 10 mps 692 mmHg 65%
    11:00 +4°C° 0.2 mm 11 mps 692 mmHg 60%
    12:00 +4°C° 0.5 mm 11 mps 692 mmHg 60%
    13:00 +4°C° 0.5 mm 11 mps 692 mmHg 60%
    14:00 +4°C° 0.5 mm 11 mps 691 mmHg 60%
    15:00 +3°C° 0.4 mm 10 mps 691 mmHg 63%
    16:00 +3°C° 0.4 mm 9 mps 692 mmHg 66%
    17:00 +3°C° 0.4 mm 7 mps 692 mmHg 69%
    18:00 +3°C° 0.6 mm 6 mps 692 mmHg 72%
    19:00 +2°C° 0.6 mm 5 mps 692 mmHg 75%
    20:00 +3°C° 0.6 mm 4 mps 693 mmHg 77%
    21:00 +3°C° 0.4 mm 4 mps 693 mmHg 77%
    22:00 +3°C° 0.4 mm 4 mps 693 mmHg 77%
    23:00 +3°C° 0.4 mm 3 mps 693 mmHg 76%

    27 January, Saturday

    Time Temperature Precipitation Wind Pressure Humidity
    00:00 +3°C° 0.1 mm 3 mps 693 mmHg 77%
    01:00 +2°C° 0.1 mm 3 mps 693 mmHg 77%
    02:00 +1°C° 0.1 mm 4 mps 694 mmHg 78%
    03:00 +3°C° 0.1 mm 3 mps 694 mmHg 78%
    04:00 +3°C° 0.1 mm 3 mps 694 mmHg 79%
    05:00 +3°C° 0.1 mm 3 mps 694 mmHg 79%
    06:00 +4°C° 0.2 mm 3 mps 695 mmHg 79%
    07:00 +4°C° 0.2 mm 3 mps 695 mmHg 78%
    08:00 +4°C° 0.2 mm 3 mps 696 mmHg 78%
    09:00 +5°C° 0.2 mm 4 mps 696 mmHg 76%
    10:00 +6°C° 0.2 mm 4 mps 696 mmHg 73%
    11:00 +7°C° 0.2 mm 4 mps 697 mmHg 71%
    12:00 +7°C° 0.2 mm 4 mps 697 mmHg 71%
    13:00 +7°C° 0.2 mm 4 mps 697 mmHg 71%
    14:00 +7°C° 0.2 mm 4 mps 697 mmHg 70%
    15:00 +7°C° 0.1 mm 4 mps 697 mmHg 72%
    16:00 +8°C° 0.1 mm 3 mps 697 mmHg 74%
    17:00 +8°C° 0.1 mm 3 mps 697 mmHg 76%
    18:00 +7°C° 0.1 mm 2 mps 697 mmHg 77%
    19:00 +7°C° 0.1 mm 2 mps 698 mmHg 78%
    20:00 +7°C° 0.1 mm 2 mps 698 mmHg 80%
    21:00 +6°C° 0 mm 2 mps 698 mmHg 80%
    22:00 +7°C° 0 mm 1 mps 698 mmHg 81%
    23:00 +7°C° 0 mm 1 mps 698 mmHg 82%

    28 January, Sunday

    Time Temperature Precipitation Wind Pressure Humidity
    00:00 +7°C° 0 mm 1 mps 698 mmHg 82%
    01:00 +7°C° 0 mm 1 mps 698 mmHg 83%
    02:00 +6°C° 0 mm 1 mps 698 mmHg 83%
    03:00 +5°C° 0 mm 2 mps 698 mmHg 84%
    04:00 +5°C° 0 mm 2 mps 698 mmHg 84%
    05:00 +5°C° 0 mm 2 mps 698 mmHg 85%
    06:00 +6°C° 0 mm 2 mps 698 mmHg 83%
    07:00 +6°C° 0 mm 2 mps 698 mmHg 81%
    08:00 +6°C° 0 mm 2 mps 699 mmHg 80%
    09:00 +7°C° 0 mm 2 mps 699 mmHg 75%
    10:00 +8°C° 0 mm 2 mps 699 mmHg 70%
    11:00 +9°C° 0 mm 2 mps 699 mmHg 65%
    12:00 +9°C° 0 mm 2 mps 699 mmHg 63%
    13:00 +9°C° 0 mm 2 mps 698 mmHg 62%
    14:00 +10°C° 0 mm 3 mps 698 mmHg 61%
    15:00 +9°C° 0 mm 2 mps 698 mmHg 63%
    16:00 +9°C° 0 mm 2 mps 698 mmHg 65%
    17:00 +8°C° 0 mm 2 mps 698 mmHg 66%
    18:00 +8°C° 0 mm 2 mps 698 mmHg 70%
    19:00 +8°C° 0 mm 1 mps 698 mmHg 73%
    20:00 +7°C° 0 mm 1 mps 698 mmHg 76%
    21:00 +7°C° 0 mm 1 mps 698 mmHg 77%
    22:00 +7°C° 0 mm 1 mps 698 mmHg 78%
    23:00 +7°C° 0 mm 1 mps 698 mmHg 79%
    Show more